When you browse on this site, cookies collect data to enhance your experience and personalize the content and advertising you see.
Visit our Privacy Policy to learn more. By continuing to use the site, you agree to this use of cookies and data.
  • In Lithuania
  • List of Countries
  • For 7 days
  • Water Temperature
  • Satellite Maps
  • Weather Map
  • Weather Widgets
  • user-avatar
    Login

    Hourly Weather Quito

    Today, 27 May, Monday

    Time Temperature Precipitation Wind Pressure Humidity
    00:00 +12°C° 0 mm 1 mps 622 mmHg 59%
    01:00 +12°C° 0 mm 1 mps 622 mmHg 61%
    02:00 +11°C° 0 mm 1 mps 622 mmHg 62%
    03:00 +11°C° 0 mm 1 mps 622 mmHg 64%
    04:00 +11°C° 0 mm 1 mps 622 mmHg 65%
    05:00 +11°C° 0 mm 1 mps 622 mmHg 66%
    06:00 +11°C° 0 mm 1 mps 622 mmHg 66%
    07:00 +12°C° 0 mm 1 mps 623 mmHg 66%
    08:00 +15°C° 0 mm 1 mps 623 mmHg 58%
    09:00 +18°C° 0 mm 2 mps 624 mmHg 50%
    10:00 +21°C° 0 mm 3 mps 625 mmHg 42%
    11:00 +23°C° 0 mm 2 mps 625 mmHg 38%
    12:00 +24°C° 0 mm 2 mps 624 mmHg 35%
    13:00 +25°C° 0 mm 2 mps 624 mmHg 32%
    14:00 +25°C° 0 mm 2 mps 624 mmHg 33%
    15:00 +24°C° 0 mm 1 mps 623 mmHg 33%
    16:00 +24°C° 0 mm 1 mps 623 mmHg 34%
    17:00 +21°C° 0 mm 1 mps 622 mmHg 39%
    18:00 +19°C° 0 mm 1 mps 622 mmHg 44%
    19:00 +15°C° 0 mm 1 mps 621 mmHg 49%
    20:00 +15°C° 0 mm 1 mps 621 mmHg 49%
    21:00 +15°C° 0 mm 1 mps 622 mmHg 49%
    22:00 +14°C° 0 mm 1 mps 622 mmHg 49%
    23:00 +14°C° 0 mm 1 mps 622 mmHg 50%

    Tomorrow, 28 May, Tuesday

    Time Temperature Precipitation Wind Pressure Humidity
    00:00 +13°C° 0 mm 0 mps 622 mmHg 51%
    01:00 +12°C° 0 mm 0 mps 622 mmHg 51%
    02:00 +12°C° 0 mm 0 mps 621 mmHg 53%
    03:00 +12°C° 0 mm 1 mps 621 mmHg 55%
    04:00 +12°C° 0 mm 1 mps 621 mmHg 57%
    05:00 +12°C° 0 mm 1 mps 621 mmHg 58%
    06:00 +13°C° 0 mm 1 mps 622 mmHg 59%
    07:00 +13°C° 0 mm 1 mps 622 mmHg 60%
    08:00 +16°C° 0 mm 1 mps 623 mmHg 54%
    09:00 +19°C° 0 mm 2 mps 624 mmHg 47%
    10:00 +23°C° 0 mm 2 mps 625 mmHg 41%
    11:00 +24°C° 0 mm 2 mps 625 mmHg 38%
    12:00 +25°C° 0 mm 2 mps 624 mmHg 35%
    13:00 +26°C° 0 mm 2 mps 624 mmHg 32%
    14:00 +26°C° 0 mm 2 mps 623 mmHg 33%
    15:00 +26°C° 0 mm 2 mps 623 mmHg 34%
    16:00 +26°C° 0 mm 2 mps 623 mmHg 35%
    17:00 +23°C° 0 mm 1 mps 622 mmHg 42%
    18:00 +21°C° 0 mm 1 mps 622 mmHg 49%
    19:00 +18°C° 0 mm 1 mps 621 mmHg 56%
    20:00 +18°C° 0 mm 1 mps 622 mmHg 57%
    21:00 +16°C° 0 mm 1 mps 622 mmHg 59%
    22:00 +16°C° 0 mm 1 mps 622 mmHg 60%
    23:00 +14°C° 0 mm 0 mps 622 mmHg 60%

    Day after tomorrow, 29 May, Wednesday

    Time Temperature Precipitation Wind Pressure Humidity
    00:00 +14°C° 0 mm 0 mps 622 mmHg 59%
    01:00 +14°C° 0 mm 0 mps 621 mmHg 59%
    02:00 +14°C° 0 mm 0 mps 621 mmHg 59%
    03:00 +14°C° 0 mm 0 mps 621 mmHg 58%
    04:00 +14°C° 0 mm 0 mps 621 mmHg 58%
    05:00 +14°C° 0 mm 0 mps 622 mmHg 59%
    06:00 +14°C° 0 mm 0 mps 622 mmHg 61%
    07:00 +15°C° 0 mm 1 mps 623 mmHg 62%
    08:00 +19°C° 0 mm 1 mps 624 mmHg 55%
    09:00 +22°C° 0 mm 1 mps 625 mmHg 48%
    10:00 +25°C° 0 mm 1 mps 626 mmHg 41%
    11:00 +25°C° 0 mm 1 mps 625 mmHg 41%
    12:00 +25°C° 0 mm 1 mps 624 mmHg 40%
    13:00 +26°C° 0 mm 1 mps 624 mmHg 39%
    14:00 +25°C° 0 mm 1 mps 624 mmHg 40%
    15:00 +25°C° 0 mm 1 mps 623 mmHg 41%
    16:00 +23°C° 0 mm 0 mps 623 mmHg 42%
    17:00 +21°C° 0 mm 0 mps 623 mmHg 46%
    18:00 +21°C° 0 mm 1 mps 622 mmHg 50%
    19:00 +19°C° 0 mm 1 mps 622 mmHg 54%
    20:00 +19°C° 0 mm 1 mps 622 mmHg 55%
    21:00 +18°C° 0 mm 1 mps 623 mmHg 56%
    22:00 +18°C° 0 mm 1 mps 623 mmHg 58%
    23:00 +16°C° 0 mm 1 mps 622 mmHg 58%

    30 May, Thursday

    Time Temperature Precipitation Wind Pressure Humidity
    00:00 +15°C° 0 mm 0 mps 622 mmHg 59%
    01:00 +15°C° 0 mm 0 mps 622 mmHg 59%
    02:00 +15°C° 0 mm 0 mps 622 mmHg 59%
    03:00 +15°C° 0 mm 0 mps 622 mmHg 58%
    04:00 +16°C° 0 mm 0 mps 622 mmHg 57%
    05:00 +16°C° 0 mm 0 mps 622 mmHg 58%
    06:00 +16°C° 0 mm 0 mps 623 mmHg 60%
    07:00 +16°C° 0 mm 0 mps 623 mmHg 61%
    08:00 +20°C° 0 mm 1 mps 624 mmHg 54%
    09:00 +21°C° 0 mm 2 mps 625 mmHg 47%
    10:00 +25°C° 0 mm 3 mps 626 mmHg 40%
    11:00 +26°C° 0 mm 2 mps 625 mmHg 37%
    12:00 +27°C° 0 mm 2 mps 625 mmHg 34%
    13:00 +28°C° 0 mm 1 mps 624 mmHg 31%
    14:00 +27°C° 0 mm 1 mps 624 mmHg 34%
    15:00 +26°C° 0 mm 1 mps 623 mmHg 37%
    16:00 +25°C° 0 mm 1 mps 622 mmHg 40%
    17:00 +23°C° 0 mm 1 mps 622 mmHg 43%
    18:00 +21°C° 0 mm 1 mps 622 mmHg 45%
    19:00 +20°C° 0 mm 1 mps 622 mmHg 48%
    20:00 +19°C° 0 mm 1 mps 622 mmHg 48%
    21:00 +19°C° 0 mm 1 mps 622 mmHg 48%
    22:00 +19°C° 0 mm 1 mps 622 mmHg 48%
    23:00 +19°C° 0 mm 1 mps 622 mmHg 47%

    31 May, Friday

    Time Temperature Precipitation Wind Pressure Humidity
    00:00 +17°C° 0 mm 0 mps 622 mmHg 46%
    01:00 +17°C° 0 mm 0 mps 622 mmHg 46%
    02:00 +17°C° 0 mm 0 mps 622 mmHg 47%
    03:00 +17°C° 0 mm 0 mps 622 mmHg 48%
    04:00 +17°C° 0 mm 0 mps 622 mmHg 49%
    05:00 +17°C° 0 mm 0 mps 622 mmHg 52%
    06:00 +16°C° 0 mm 0 mps 623 mmHg 54%
    07:00 +16°C° 0 mm 0 mps 623 mmHg 56%
    08:00 +21°C° 0 mm 1 mps 624 mmHg 49%
    09:00 +23°C° 0 mm 2 mps 625 mmHg 41%
    10:00 +25°C° 0 mm 3 mps 626 mmHg 34%
    11:00 +26°C° 0 mm 3 mps 625 mmHg 32%
    12:00 +27°C° 0 mm 3 mps 624 mmHg 31%
    13:00 +27°C° 0 mm 3 mps 624 mmHg 30%
    14:00 +27°C° 0 mm 2 mps 624 mmHg 31%
    15:00 +27°C° 0 mm 2 mps 623 mmHg 32%
    16:00 +26°C° 0 mm 1 mps 623 mmHg 33%
    17:00 +24°C° 0 mm 1 mps 622 mmHg 38%
    18:00 +19°C° 0 mm 0 mps 622 mmHg 43%
    19:00 +17°C° 0 mm 0 mps 621 mmHg 48%
    20:00 +16°C° 0 mm 0 mps 622 mmHg 48%
    21:00 +16°C° 0 mm 0 mps 622 mmHg 49%
    22:00 +15°C° 0 mm 0 mps 622 mmHg 49%
    23:00 +15°C° 0 mm 0 mps 622 mmHg 50%

    1 June, Saturday

    Time Temperature Precipitation Wind Pressure Humidity
    00:00 +16°C° 0 mm 1 mps 622 mmHg 51%
    01:00 +15°C° 0 mm 1 mps 621 mmHg 53%
    02:00 +15°C° 0 mm 1 mps 621 mmHg 54%
    03:00 +14°C° 0 mm 1 mps 621 mmHg 55%
    04:00 +13°C° 0 mm 1 mps 621 mmHg 57%
    05:00 +14°C° 0 mm 1 mps 622 mmHg 57%
    06:00 +14°C° 0 mm 1 mps 622 mmHg 57%
    07:00 +14°C° 0 mm 1 mps 623 mmHg 57%
    08:00 +17°C° 0 mm 2 mps 623 mmHg 49%
    09:00 +20°C° 0 mm 3 mps 624 mmHg 40%
    10:00 +23°C° 0 mm 4 mps 625 mmHg 32%
    11:00 +25°C° 0 mm 4 mps 625 mmHg 30%
    12:00 +26°C° 0 mm 3 mps 624 mmHg 28%
    13:00 +27°C° 0 mm 3 mps 624 mmHg 26%
    14:00 +27°C° 0 mm 3 mps 624 mmHg 27%
    15:00 +26°C° 0 mm 3 mps 623 mmHg 27%
    16:00 +26°C° 0 mm 2 mps 623 mmHg 28%
    17:00 +23°C° 0 mm 2 mps 623 mmHg 33%
    18:00 +21°C° 0 mm 1 mps 622 mmHg 39%
    19:00 +16°C° 0 mm 0 mps 622 mmHg 44%
    20:00 +15°C° 0 mm 0 mps 622 mmHg 45%
    21:00 +16°C° 0 mm 1 mps 622 mmHg 46%
    22:00 +15°C° 0 mm 1 mps 623 mmHg 47%
    23:00 +15°C° 0 mm 1 mps 622 mmHg 48%
    Show more